Regional Weather Roundup
Issued by NWS

Home | Current Version | Previous Version | Text Only | Print | Product List | Glossary Off
Versions: 1 2 3 4 5 6 7 8 9 10 11 12 13 14 15 16 17 18 19 20 21 22 23 24 25 26 27 28 29 30 31 32 33 34 35 36 37 38 39 40 41 42 43 44 45 46 47 48 49 50

000
ASUS43 KBIS 251020
RWRND

NORTH DAKOTA REGIONAL WEATHER ROUNDUP
NATIONAL WEATHER SERVICE BISMARCK ND
400 AM CST THU DEC 25 2014

NOTE: "FAIR" INDICATES FEW OR NO CLOUDS BELOW 12,000 FEET WITH NO
SIGNIFICANT WEATHER AND/OR OBSTRUCTIONS TO VISIBILITY.


NDZ001>003-009>011-017-251100-
NORTHWEST NORTH DAKOTA

CITY           SKY/WX    TMP DP  RH WIND       PRES   REMARKS
WILLISTON      CLOUDY    24  20  84 CALM      29.62R
MINOT          CLOUDY    27  22  81 W9        29.55R WCI  18
MINOT AFB      CLOUDY    27  26  99 NW14      29.55R WCI  15
$$

NDZ018>021-031>035-040>046-251100-
SOUTHWEST NORTH DAKOTA

CITY           SKY/WX    TMP DP  RH WIND       PRES   REMARKS
BISMARCK       MOCLDY    25  23  92 W6        29.58R WCI  18
DICKINSON      CLOUDY    27  22  81 NW12      29.56R WCI  17
GARRISON         N/A     22  19  89 NW10      29.56R WCI  11
HETTINGER ARPT CLOUDY    30  26  85 N12       29.56R
$$

NDZ004>008-012>016-024-026-027-054-251100-
NORTHEAST NORTH DAKOTA

CITY           SKY/WX    TMP DP  RH WIND       PRES   REMARKS
GRAND FORKS    CLOUDY    28  27  93 NW10      29.52R WCI  19
GRND FRKS AFB  CLOUDY    29  28  99 N9        29.52R WCI  20
DEVILS LAKE    CLOUDY    21  18  86 W8        29.53R WCI  12
$$

NDZ022-023-025-028>030-036>039-047>053-251100-
SOUTHEAST NORTH DAKOTA

CITY           SKY/WX    TMP DP  RH WIND       PRES   REMARKS
FARGO          MOCLDY    27  24  89 SW6       29.52R
JAMESTOWN      CLOUDY    25  21  85 NW5       29.53R WCI  19
$$



USA.gov is the U.S. government's official web portal to all federal, state and local government web resources and services.